When you browse on this site, cookies collect data to enhance your experience and personalize the content and advertising you see.
Visit our Privacy Policy to learn more. By continuing to use the site, you agree to this use of cookies and data.
  • Em Portugal
  • Lista de países
  • Para 7 dias
  • Temperatura da água
  • Mapas de satélite
  • Mapa do tempo
  • Widgets de tempo
  • user-avatar
    Iniciar Sessão

    Previsão horária em Ordino

    Hoje, 15 Dezembro, Sábado

    Tempo Temperatura Precipitação Vento Pressão Humidade
    00:00 -3°C° 0 mm 2 m/s 633 mmHg 85%
    01:00 -3°C° 0 mm 2 m/s 633 mmHg 83%
    02:00 -3°C° 0 mm 2 m/s 633 mmHg 81%
    03:00 -3°C° 0 mm 2 m/s 633 mmHg 79%
    04:00 -2°C° 0 mm 2 m/s 633 mmHg 76%
    05:00 -2°C° 0 mm 2 m/s 633 mmHg 73%
    06:00 -2°C° 0 mm 2 m/s 633 mmHg 71%
    07:00 -1°C° 0 mm 2 m/s 633 mmHg 67%
    08:00 +3°C° 0 mm 1 m/s 634 mmHg 63%
    09:00 +4°C° 0 mm 1 m/s 634 mmHg 59%
    10:00 +6°C° 0 mm 1 m/s 635 mmHg 58%
    11:00 +7°C° 0 mm 1 m/s 635 mmHg 58%
    12:00 +9°C° 0 mm 1 m/s 636 mmHg 57%
    13:00 +8°C° 0.4 mm 1 m/s 635 mmHg 65%
    14:00 +7°C° 0.4 mm 1 m/s 635 mmHg 73%
    15:00 +6°C° 0.4 mm 1 m/s 634 mmHg 81%
    16:00 +5°C° 0.3 mm 1 m/s 634 mmHg 83%
    17:00 +5°C° 0.3 mm 1 m/s 634 mmHg 85%
    18:00 +5°C° 0.3 mm 1 m/s 633 mmHg 86%
    19:00 +5°C° 0 mm 1 m/s 633 mmHg 87%
    20:00 +5°C° 0 mm 1 m/s 633 mmHg 87%
    21:00 +5°C° 0 mm 1 m/s 633 mmHg 87%
    22:00 +5°C° 0 mm 1 m/s 633 mmHg 88%
    23:00 +5°C° 0 mm 1 m/s 633 mmHg 88%

    Amanhã, 16 Dezembro, Domingo

    Tempo Temperatura Precipitação Vento Pressão Humidade
    00:00 +5°C° 0 mm 1 m/s 633 mmHg 89%
    01:00 +4°C° 0.1 mm 1 m/s 633 mmHg 89%
    02:00 +4°C° 0.1 mm 1 m/s 632 mmHg 90%
    03:00 +4°C° 0.1 mm 1 m/s 632 mmHg 90%
    04:00 +4°C° 0.4 mm 1 m/s 632 mmHg 91%
    05:00 +4°C° 0.4 mm 1 m/s 632 mmHg 93%
    06:00 +3°C° 0.4 mm 0 m/s 632 mmHg 94%
    07:00 +4°C° 0.5 mm 1 m/s 632 mmHg 93%
    08:00 +5°C° 0.5 mm 1 m/s 632 mmHg 92%
    09:00 +5°C° 0.5 mm 1 m/s 632 mmHg 91%
    10:00 +5°C° 0.8 mm 1 m/s 632 mmHg 92%
    11:00 +4°C° 0.8 mm 2 m/s 632 mmHg 92%
    12:00 +4°C° 0.8 mm 2 m/s 632 mmHg 93%
    13:00 +4°C° 0.3 mm 2 m/s 632 mmHg 91%
    14:00 +4°C° 0.3 mm 2 m/s 631 mmHg 90%
    15:00 +3°C° 0.3 mm 3 m/s 631 mmHg 89%
    16:00 +3°C° 0.1 mm 2 m/s 631 mmHg 91%
    17:00 +2°C° 0.1 mm 2 m/s 631 mmHg 94%
    18:00 +3°C° 0.1 mm 1 m/s 632 mmHg 96%
    19:00 +1°C° 0.1 mm 2 m/s 632 mmHg 95%
    20:00 +1°C° 0.1 mm 2 m/s 632 mmHg 94%
    21:00 +1°C° 0.1 mm 2 m/s 632 mmHg 93%
    22:00 +1°C° 0.3 mm 2 m/s 633 mmHg 92%
    23:00 -1°C° 0.3 mm 2 m/s 633 mmHg 90%

    Depois de amanhã, 17 Dezembro, Segunda-feira

    Tempo Temperatura Precipitação Vento Pressão Humidade
    00:00 -1°C° 0.3 mm 3 m/s 633 mmHg 89%
    01:00 -1°C° 0 mm 3 m/s 633 mmHg 87%
    02:00 -2°C° 0 mm 3 m/s 633 mmHg 86%
    03:00 -4°C° 0 mm 3 m/s 633 mmHg 84%
    04:00 -4°C° 0 mm 3 m/s 634 mmHg 83%
    05:00 -4°C° 0 mm 3 m/s 634 mmHg 83%
    06:00 -5°C° 0 mm 3 m/s 634 mmHg 82%
    07:00 -4°C° 0 mm 3 m/s 635 mmHg 79%
    08:00 -2°C° 0 mm 3 m/s 636 mmHg 76%
    09:00 -1°C° 0 mm 2 m/s 637 mmHg 73%
    10:00 +1°C° 0 mm 2 m/s 637 mmHg 68%
    11:00 +2°C° 0 mm 2 m/s 638 mmHg 62%
    12:00 +3°C° 0 mm 2 m/s 639 mmHg 57%
    13:00 +4°C° 0 mm 1 m/s 639 mmHg 58%
    14:00 +4°C° 0 mm 1 m/s 638 mmHg 60%
    15:00 +4°C° 0 mm 1 m/s 638 mmHg 62%
    16:00 +2°C° 0 mm 1 m/s 638 mmHg 67%
    17:00 +1°C° 0 mm 1 m/s 638 mmHg 72%
    18:00 -1°C° 0 mm 1 m/s 637 mmHg 77%
    19:00 -1°C° 0 mm 1 m/s 637 mmHg 75%
    20:00 -1°C° 0 mm 1 m/s 637 mmHg 73%
    21:00 -1°C° 0 mm 1 m/s 637 mmHg 71%
    22:00 -1°C° 0 mm 1 m/s 637 mmHg 70%
    23:00 -1°C° 0 mm 1 m/s 637 mmHg 70%

    18 Dezembro, Terça-feira

    Tempo Temperatura Precipitação Vento Pressão Humidade
    00:00 -1°C° 0 mm 1 m/s 637 mmHg 70%
    01:00 -1°C° 0 mm 1 m/s 636 mmHg 69%
    02:00 -3°C° 0 mm 2 m/s 636 mmHg 68%
    03:00 -2°C° 0 mm 2 m/s 635 mmHg 67%
    04:00 -2°C° 0 mm 2 m/s 635 mmHg 67%
    05:00 -3°C° 0 mm 2 m/s 635 mmHg 67%
    06:00 -3°C° 0 mm 2 m/s 635 mmHg 67%
    07:00 -2°C° 0 mm 2 m/s 635 mmHg 63%
    08:00 +1°C° 0 mm 2 m/s 635 mmHg 59%
    09:00 +2°C° 0 mm 2 m/s 635 mmHg 55%
    10:00 +2°C° 0 mm 3 m/s 635 mmHg 53%
    11:00 +3°C° 0 mm 3 m/s 635 mmHg 52%
    12:00 +4°C° 0 mm 3 m/s 635 mmHg 50%
    13:00 +4°C° 0 mm 3 m/s 635 mmHg 53%
    14:00 +4°C° 0 mm 3 m/s 634 mmHg 56%
    15:00 +3°C° 0 mm 3 m/s 633 mmHg 59%
    16:00 +2°C° 0 mm 3 m/s 633 mmHg 62%
    17:00 +2°C° 0 mm 2 m/s 633 mmHg 65%
    18:00 +2°C° 0 mm 2 m/s 633 mmHg 68%
    19:00 +1°C° 0 mm 2 m/s 633 mmHg 69%
    20:00 +1°C° 0 mm 2 m/s 633 mmHg 71%
    21:00 +1°C° 0 mm 2 m/s 633 mmHg 73%
    22:00 +1°C° 0 mm 2 m/s 633 mmHg 74%
    23:00 +2°C° 0 mm 1 m/s 632 mmHg 75%

    19 Dezembro, Quarta-feira

    Tempo Temperatura Precipitação Vento Pressão Humidade
    00:00 +2°C° 0 mm 1 m/s 632 mmHg 76%
    01:00 +2°C° 0.1 mm 1 m/s 632 mmHg 79%
    02:00 +1°C° 0.1 mm 1 m/s 632 mmHg 81%
    03:00 +1°C° 0.1 mm 1 m/s 631 mmHg 84%
    04:00 +1°C° 0.3 mm 1 m/s 632 mmHg 86%
    05:00 +1°C° 0.3 mm 1 m/s 632 mmHg 89%
    06:00 +1°C° 0.3 mm 1 m/s 632 mmHg 91%
    07:00 +1°C° 0.2 mm 1 m/s 632 mmHg 90%
    08:00 +2°C° 0.2 mm 1 m/s 633 mmHg 89%
    09:00 +2°C° 0.2 mm 1 m/s 633 mmHg 87%
    10:00 +3°C° 0 mm 1 m/s 633 mmHg 83%
    11:00 +4°C° 0 mm 1 m/s 634 mmHg 79%
    12:00 +4°C° 0 mm 1 m/s 634 mmHg 75%
    13:00 +3°C° 0.2 mm 2 m/s 634 mmHg 76%
    14:00 +3°C° 0.2 mm 2 m/s 634 mmHg 77%
    15:00 +2°C° 0.2 mm 2 m/s 634 mmHg 78%
    16:00 +1°C° 0.1 mm 2 m/s 634 mmHg 80%
    17:00 -1°C° 0.1 mm 2 m/s 634 mmHg 82%
    18:00 -3°C° 0.1 mm 2 m/s 634 mmHg 84%
    19:00 -3°C° 0 mm 2 m/s 634 mmHg 81%
    20:00 -3°C° 0 mm 2 m/s 634 mmHg 77%
    21:00 -4°C° 0 mm 2 m/s 634 mmHg 73%
    22:00 -4°C° 0 mm 2 m/s 634 mmHg 71%
    23:00 -2°C° 0 mm 1 m/s 634 mmHg 69%

    20 Dezembro, Quinta-feira

    Tempo Temperatura Precipitação Vento Pressão Humidade
    00:00 -2°C° 0 mm 1 m/s 634 mmHg 68%
    01:00 -2°C° 0 mm 1 m/s 634 mmHg 68%
    02:00 -4°C° 0 mm 2 m/s 634 mmHg 68%
    03:00 -4°C° 0 mm 2 m/s 634 mmHg 68%
    04:00 -4°C° 0 mm 2 m/s 635 mmHg 70%
    05:00 -4°C° 0 mm 2 m/s 635 mmHg 73%
    06:00 -4°C° 0 mm 2 m/s 635 mmHg 75%
    07:00 -3°C° 0 mm 2 m/s 636 mmHg 74%
    08:00 0°C° 0 mm 1 m/s 636 mmHg 72%
    09:00 +1°C° 0 mm 1 m/s 637 mmHg 71%
    10:00 +1°C° 0 mm 2 m/s 637 mmHg 68%
    11:00 +3°C° 0 mm 2 m/s 638 mmHg 65%
    12:00 +4°C° 0 mm 2 m/s 638 mmHg 62%
    13:00 +4°C° 0 mm 2 m/s 638 mmHg 63%
    14:00 +3°C° 0 mm 2 m/s 638 mmHg 64%
    15:00 +3°C° 0 mm 2 m/s 638 mmHg 64%
    16:00 +2°C° 0 mm 2 m/s 638 mmHg 69%
    17:00 -1°C° 0 mm 2 m/s 638 mmHg 73%
    18:00 -3°C° 0 mm 2 m/s 637 mmHg 77%
    19:00 -3°C° 0 mm 2 m/s 637 mmHg 75%
    20:00 -3°C° 0 mm 2 m/s 638 mmHg 73%
    21:00 -3°C° 0 mm 2 m/s 638 mmHg 72%
    22:00 -3°C° 0 mm 2 m/s 638 mmHg 72%
    23:00 -3°C° 0 mm 2 m/s 638 mmHg 72%
    Mostrar mais